When you browse on this site, cookies collect data to enhance your experience and personalize the content and advertising you see.
Visit our Privacy Policy to learn more. By continuing to use the site, you agree to this use of cookies and data.
EN

Hourly Weather Budapest

Today, 25 September, Friday

Time Temperature Precipitation Wind Pressure Humidity
00:00 +19°C° 0 mm 2 mps 747 mmHg 62%
01:00 +19°C° 0 mm 3 mps 747 mmHg 66%
02:00 +18°C° 0 mm 3 mps 747 mmHg 68%
03:00 +18°C° 0 mm 2 mps 746 mmHg 69%
04:00 +18°C° 0 mm 2 mps 745 mmHg 71%
05:00 +19°C° 0 mm 3 mps 745 mmHg 68%
06:00 +19°C° 0 mm 4 mps 744 mmHg 66%
07:00 +20°C° 0 mm 4 mps 744 mmHg 61%
08:00 +21°C° 0 mm 4 mps 744 mmHg 55%
09:00 +23°C° 0 mm 5 mps 743 mmHg 49%
10:00 +24°C° 0 mm 6 mps 743 mmHg 44%
11:00 +22°C° 0.4 mm 5 mps 742 mmHg 55%
12:00 +21°C° 0.4 mm 4 mps 742 mmHg 65%
13:00 +19°C° 0.4 mm 4 mps 741 mmHg 76%
14:00 +20°C° 0.2 mm 4 mps 740 mmHg 74%
15:00 +21°C° 0.2 mm 4 mps 740 mmHg 72%
16:00 +22°C° 0.2 mm 5 mps 739 mmHg 69%
17:00 +21°C° 1.2 mm 5 mps 739 mmHg 73%
18:00 +20°C° 1.2 mm 5 mps 739 mmHg 77%
19:00 +20°C° 1.2 mm 5 mps 738 mmHg 81%
20:00 +19°C° 0.5 mm 5 mps 738 mmHg 82%
21:00 +19°C° 0.5 mm 5 mps 737 mmHg 83%
22:00 +19°C° 0.5 mm 5 mps 736 mmHg 84%
23:00 +19°C° 0.6 mm 5 mps 736 mmHg 84%

Tomorrow, 26 September, Saturday

Time Temperature Precipitation Wind Pressure Humidity
00:00 +19°C° 0.6 mm 5 mps 735 mmHg 83%
01:00 +19°C° 0.6 mm 5 mps 735 mmHg 82%
02:00 +17°C° 0.8 mm 5 mps 735 mmHg 83%
03:00 +17°C° 0.8 mm 5 mps 735 mmHg 84%
04:00 +17°C° 0.8 mm 5 mps 735 mmHg 85%
05:00 +15°C° 0.1 mm 5 mps 735 mmHg 83%
06:00 +14°C° 0.1 mm 6 mps 736 mmHg 82%
07:00 +13°C° 0.1 mm 6 mps 736 mmHg 80%
08:00 +13°C° 0 mm 5 mps 737 mmHg 74%
09:00 +14°C° 0 mm 5 mps 738 mmHg 68%
10:00 +15°C° 0 mm 4 mps 739 mmHg 63%
11:00 +15°C° 0 mm 4 mps 739 mmHg 60%
12:00 +15°C° 0 mm 4 mps 739 mmHg 58%
13:00 +17°C° 0 mm 4 mps 739 mmHg 56%
14:00 +16°C° 0 mm 5 mps 739 mmHg 55%
15:00 +16°C° 0 mm 5 mps 739 mmHg 55%
16:00 +16°C° 0 mm 5 mps 739 mmHg 54%
17:00 +14°C° 0 mm 5 mps 740 mmHg 57%
18:00 +13°C° 0 mm 5 mps 740 mmHg 60%
19:00 +12°C° 0 mm 5 mps 740 mmHg 63%
20:00 +10°C° 0 mm 5 mps 741 mmHg 63%
21:00 +10°C° 0 mm 5 mps 741 mmHg 63%
22:00 +10°C° 0 mm 5 mps 741 mmHg 64%
23:00 +9°C° 0 mm 5 mps 742 mmHg 64%

Day after tomorrow, 27 September, Sunday

Time Temperature Precipitation Wind Pressure Humidity
00:00 +9°C° 0 mm 5 mps 742 mmHg 64%
01:00 +9°C° 0 mm 5 mps 742 mmHg 63%
02:00 +8°C° 0 mm 5 mps 742 mmHg 66%
03:00 +8°C° 0 mm 4 mps 742 mmHg 68%
04:00 +8°C° 0 mm 4 mps 743 mmHg 71%
05:00 +8°C° 0 mm 4 mps 743 mmHg 70%
06:00 +8°C° 0 mm 5 mps 744 mmHg 68%
07:00 +9°C° 0 mm 5 mps 744 mmHg 67%
08:00 +10°C° 0 mm 6 mps 745 mmHg 62%
09:00 +13°C° 0 mm 6 mps 745 mmHg 56%
10:00 +14°C° 0 mm 6 mps 745 mmHg 50%
11:00 +15°C° 0 mm 6 mps 746 mmHg 47%
12:00 +16°C° 0 mm 5 mps 746 mmHg 44%
13:00 +17°C° 0 mm 5 mps 747 mmHg 41%
14:00 +18°C° 0 mm 4 mps 747 mmHg 41%
15:00 +18°C° 0 mm 3 mps 747 mmHg 41%
16:00 +18°C° 0 mm 2 mps 747 mmHg 41%
17:00 +16°C° 0 mm 2 mps 747 mmHg 45%
18:00 +15°C° 0 mm 2 mps 748 mmHg 48%
19:00 +14°C° 0 mm 2 mps 748 mmHg 52%
20:00 +14°C° 0 mm 2 mps 748 mmHg 53%
21:00 +12°C° 0 mm 3 mps 748 mmHg 54%
22:00 +12°C° 0 mm 3 mps 748 mmHg 55%
23:00 +12°C° 0.1 mm 3 mps 748 mmHg 57%

28 September, Monday

Time Temperature Precipitation Wind Pressure Humidity
00:00 +12°C° 0.1 mm 4 mps 748 mmHg 58%
01:00 +12°C° 0.1 mm 4 mps 747 mmHg 60%
02:00 +12°C° 0.7 mm 5 mps 747 mmHg 67%
03:00 +11°C° 0.7 mm 6 mps 747 mmHg 73%
04:00 +10°C° 0.7 mm 7 mps 746 mmHg 80%
05:00 +10°C° 0.1 mm 7 mps 746 mmHg 81%
06:00 +10°C° 0.1 mm 6 mps 746 mmHg 82%
07:00 +10°C° 0.1 mm 6 mps 746 mmHg 84%
08:00 +13°C° 0 mm 6 mps 746 mmHg 79%
09:00 +14°C° 0 mm 5 mps 746 mmHg 74%
10:00 +17°C° 0 mm 4 mps 746 mmHg 69%
11:00 +18°C° 1.3 mm 4 mps 746 mmHg 68%
12:00 +18°C° 1.3 mm 4 mps 746 mmHg 67%
13:00 +19°C° 1.3 mm 4 mps 746 mmHg 67%
14:00 +18°C° 0.7 mm 3 mps 747 mmHg 69%
15:00 +18°C° 0.7 mm 3 mps 747 mmHg 71%
16:00 +18°C° 0.7 mm 3 mps 747 mmHg 73%
17:00 +16°C° 0.4 mm 3 mps 747 mmHg 79%
18:00 +14°C° 0.4 mm 3 mps 747 mmHg 84%
19:00 +14°C° 0.4 mm 2 mps 748 mmHg 90%
20:00 +13°C° 0 mm 3 mps 748 mmHg 90%
21:00 +13°C° 0 mm 3 mps 748 mmHg 90%
22:00 +12°C° 0 mm 3 mps 748 mmHg 91%
23:00 +12°C° 0.6 mm 3 mps 749 mmHg 90%

29 September, Tuesday

Time Temperature Precipitation Wind Pressure Humidity
00:00 +12°C° 0.6 mm 4 mps 749 mmHg 89%
01:00 +12°C° 0.6 mm 4 mps 749 mmHg 88%
02:00 +12°C° 0.3 mm 4 mps 749 mmHg 86%
03:00 +12°C° 0.3 mm 4 mps 749 mmHg 83%
04:00 +12°C° 0.3 mm 4 mps 749 mmHg 80%
05:00 +12°C° 0 mm 4 mps 749 mmHg 79%
06:00 +11°C° 0 mm 4 mps 750 mmHg 77%
07:00 +11°C° 0 mm 4 mps 750 mmHg 76%
08:00 +13°C° 0 mm 4 mps 750 mmHg 71%
09:00 +14°C° 0 mm 4 mps 750 mmHg 66%
10:00 +15°C° 0 mm 4 mps 750 mmHg 61%
11:00 +15°C° 0 mm 4 mps 750 mmHg 62%
12:00 +15°C° 0 mm 4 mps 750 mmHg 64%
13:00 +15°C° 0 mm 4 mps 750 mmHg 66%
14:00 +14°C° 0.1 mm 4 mps 750 mmHg 70%
15:00 +14°C° 0.1 mm 4 mps 750 mmHg 75%
16:00 +14°C° 0.1 mm 4 mps 750 mmHg 79%
17:00 +13°C° 0 mm 4 mps 750 mmHg 81%
18:00 +13°C° 0 mm 4 mps 751 mmHg 83%
19:00 +12°C° 0 mm 4 mps 751 mmHg 86%
20:00 +12°C° 0 mm 5 mps 751 mmHg 85%
21:00 +12°C° 0 mm 5 mps 751 mmHg 85%
22:00 +10°C° 0 mm 5 mps 752 mmHg 85%
23:00 +10°C° 0 mm 5 mps 752 mmHg 85%

30 September, Wednesday

Time Temperature Precipitation Wind Pressure Humidity
00:00 +10°C° 0 mm 5 mps 752 mmHg 85%
01:00 +10°C° 0 mm 5 mps 752 mmHg 85%
02:00 +10°C° 0 mm 5 mps 751 mmHg 87%
03:00 +11°C° 0 mm 4 mps 751 mmHg 88%
04:00 +10°C° 0 mm 4 mps 751 mmHg 89%
05:00 +11°C° 0 mm 4 mps 751 mmHg 87%
06:00 +10°C° 0 mm 5 mps 751 mmHg 84%
07:00 +10°C° 0 mm 5 mps 751 mmHg 81%
08:00 +13°C° 0 mm 6 mps 751 mmHg 73%
09:00 +15°C° 0 mm 6 mps 751 mmHg 65%
10:00 +16°C° 0 mm 7 mps 751 mmHg 56%
11:00 +17°C° 0 mm 7 mps 750 mmHg 54%
12:00 +18°C° 0 mm 7 mps 750 mmHg 51%
13:00 +20°C° 0 mm 7 mps 750 mmHg 48%
14:00 +20°C° 0 mm 7 mps 749 mmHg 50%
15:00 +20°C° 0 mm 6 mps 749 mmHg 51%
16:00 +19°C° 0 mm 6 mps 749 mmHg 53%
17:00 +17°C° 0 mm 6 mps 749 mmHg 58%
18:00 +16°C° 0 mm 5 mps 749 mmHg 63%
19:00 +14°C° 0 mm 4 mps 749 mmHg 67%
20:00 +14°C° 0 mm 4 mps 749 mmHg 67%
21:00 +14°C° 0 mm 4 mps 749 mmHg 68%
22:00 +14°C° 0 mm 4 mps 749 mmHg 68%
23:00 +14°C° 0 mm 4 mps 749 mmHg 69%
Show more